weather.gov     
National Weather Service

Terminal Aerodrome Forecast
NWS Homepage
This page is being discontinued on March 12, 2014.
The same data is available at this site. Please update your bookmarks.
Thank you, and we apologize for the inconvenience.
Please send an email to SR-SRH.Webmaster@noaa.gov with any concerns.


Current Version
Previous Version:    01  02  03  04  05  06  07  08  09  10  11  12  13  14  
[Printable]
550
FTUS41 KBOX 222321
TAFHYA
TAF
KHYA 222321Z 2300/2324 10006KT P6SM OVC035
     FM230300 10008KT P6SM BKN020
     FM230900 10011G22KT 3SM -RA BR OVC020
     FM232000 10012G21KT 3SM BR OVC015=




550
FTUS41 KBOX 222321
TAFHYA
TAF
KHYA 222321Z 2300/2324 10006KT P6SM OVC035
     FM230300 10008KT P6SM BKN020
     FM230900 10011G22KT 3SM -RA BR OVC020
     FM232000 10012G21KT 3SM BR OVC015=


U.S. Dept. of Commerce
NOAA National Weather Service
1325 East West Highway
Silver Spring, MD 20910
E-mail: w-nws.webmaster@noaa.gov
Page last modified: May 16, 2007
NATIONAL WEATHER SERVICE: for Safety, for Work, for Fun - FOR LIFE